Weather History for Ras Al Khaimah, United Arab Emirates

Change the Weather History Date:

Wednesday, February 13, 2013

  Actual Average Record
Temperature  
Mean Temperature 72 °F -  
Max Temperature 86 °F 80 °F 87 °F (2003)
Min Temperature 58 °F 58 °F 50 °F (2000)
Cooling Degree Days 7    
Growing Degree Days 22 (Base 50)    
Moisture  
Dew Point 56 °F    
Average Humidity 57    
Maximum Humidity 82    
Minimum Humidity 25    
Precipitation  
Precipitation 0.00 in 0.05 in - ()
Sea Level Pressure  
Sea Level Pressure 29.93 in    
Wind  
Wind Speed 3 mph ()    
Max Wind Speed 14 mph    
Max Gust Speed -    
Visibility 5.2 miles    
Events      
Averages and records for this station are not official NWS values.
T = Trace of Precipitation, MM = Missing Value Source: Averaged Metar Reports

Daily Weather History Graph

Daily Weather History Graph

Search for Another Location

Airport:

Trip Planner

Search our weather history database for the weather conditions in past years. The results will help you decide how hot, cold, wet, or windy it might be!

Date:

Astronomy

Feb. 13, 2013 Rise Set
Actual Time 6:52 AM GST 6:08 PM GST
Civil Twilight 6:29 AM GST 6:32 PM GST
Nautical Twilight 6:02 AM GST 6:59 PM GST
Astronomical Twilight 5:35 AM GST 7:25 PM GST
Moon 8:34 AM GST (2/13) 9:17 PM GST (2/13)
Length of Visible Light 12h 02m
Length of Day
11h 15m
Waxing Crescent, 11% of the Moon is Illuminated
Feb 13
Waxing Crescent
Feb 18
First Quarter
Feb 26
Full
Mar 5
Last Quarter
Mar 11
New

Hourly Weather History & Observations

Time (GST) Temp. Heat Index Dew Point Humidity Pressure Visibility Wind Dir Wind Speed Gust Speed Precip Events Conditions
12:00 AM 68.0 °F - 59.0 °F 73% 29.92 in 5.0 mi South 5.8 mph - N/A   Unknown
1:00 AM 68 °F - 59 °F 64% 29.93 in 5 mi Calm Calm - -   Widespread Dust
1:00 AM 68.0 °F - 59.0 °F 73% 29.92 in 5.0 mi Calm Calm - N/A   Unknown
2:00 AM 64.4 °F - 55.4 °F 73% 29.92 in 5.0 mi Calm Calm - N/A   Unknown
3:00 AM 64.4 °F - 57.2 °F 77% 29.89 in 5.0 mi Calm Calm - N/A   Unknown
4:00 AM 64 °F - 56 °F 70% 29.91 in 5 mi NE 2.3 mph - -   Widespread Dust
4:00 AM 64.4 °F - 57.2 °F 77% 29.89 in 5.0 mi NE 2.3 mph - N/A   Unknown
5:00 AM 60.8 °F - 55.4 °F 82% 29.89 in 5.0 mi ENE 4.6 mph - N/A   Unknown
6:00 AM 60.8 °F - 55.4 °F 82% 29.92 in 5.0 mi NE 2.3 mph - N/A   Unknown
7:00 AM 58 °F - 53 °F 79% 29.94 in 4 mi Calm Calm - -   Haze
7:00 AM 59.0 °F - 53.6 °F 82% 29.92 in 3.7 mi Calm Calm - N/A   Unknown
8:00 AM 60.8 °F - 55.4 °F 82% 29.95 in 3.7 mi Calm Calm - N/A   Unknown
10:00 AM 75 °F - 61 °F 52% 29.99 in 5 mi SW 8.1 mph - -   Widespread Dust
10:00 AM 75.2 °F - 60.8 °F 61% 29.98 in 5.0 mi SW 8.1 mph - N/A   Unknown
11:00 AM 80.6 °F 81.1 °F 59.0 °F 48% 29.98 in - SSW 8.1 mph - N/A   Clear
12:00 PM 82.4 °F 82.0 °F 57.2 °F 42% 29.95 in - SSW 4.6 mph - N/A   Clear
1:00 PM 86 °F - 55 °F 25% 29.94 in 6 mi West 6.9 mph - -  
1:00 PM 86.0 °F 84.5 °F 55.4 °F 35% 29.95 in - West 6.9 mph - N/A   Clear
2:00 PM 82.4 °F 82.9 °F 60.8 °F 48% 29.92 in 6.2 mi NNW 13.8 mph - N/A   Partly Cloudy
3:00 PM 80.6 °F 81.1 °F 59.0 °F 48% 29.92 in 6.2 mi NW 11.5 mph - N/A   Partly Cloudy
4:00 PM 80 °F - 61 °F 41% 29.91 in 6 mi NNW 9.2 mph - -   Scattered Clouds
4:00 PM 80.6 °F 81.5 °F 60.8 °F 51% 29.92 in 6.2 mi NNW 9.2 mph - N/A   Partly Cloudy
5:00 PM 78.8 °F - 57.2 °F 47% 29.92 in 6.2 mi NNW 8.1 mph - N/A   Partly Cloudy
6:00 PM 78.8 °F - 51.8 °F 39% 29.92 in - West 2.3 mph - N/A   Clear
7:00 PM 76 °F - 51 °F 31% 29.92 in 6 mi SSW 2.3 mph - -   Scattered Clouds
7:00 PM 75.2 °F - 51.8 °F 44% 29.92 in - SSW 2.3 mph - N/A   Clear
8:00 PM 73.4 °F - 51.8 °F 47% 29.92 in - SW 4.6 mph - N/A   Clear
9:00 PM 69.8 °F - 51.8 °F 53% 29.92 in - SW 5.8 mph - N/A   Clear
10:00 PM 68 °F - 50 °F 42% 29.94 in 6 mi SW 4.6 mph - -  
10:00 PM 68.0 °F - 50.0 °F 52% 29.92 in - SW 4.6 mph - N/A   Clear
11:00 PM 66.2 °F - 50.0 °F 56% 29.92 in - West 3.5 mph - N/A   Clear